Time,TemperatureF,DewpointF,PressureIn,WindDirection,WindDirectionDegrees,WindSpeedMPH,WindSpeedGustMPH,Humidity,HourlyPrecipIn,Conditions,Clouds,dailyrainin,SoftwareType,DateUTC
2013-04-12 00:04:00,27.3,24.0,29.78,NE,46,6.5,6.5,87,0.00,,---,0.00,VWS V13.01,2013-04-12 05:04:00,
2013-04-12 00:09:00,27.5,24.1,29.78,East,79,3.6,6.9,87,0.00,,---,0.00,VWS V13.01,2013-04-12 05:09:00,
2013-04-12 00:14:00,27.5,24.1,29.81,NE,48,4.0,7.8,87,0.00,,---,0.00,VWS V13.01,2013-04-12 05:14:00,
2013-04-12 00:19:00,27.5,24.1,29.81,NE,55,4.7,7.4,87,0.00,,---,0.00,VWS V13.01,2013-04-12 05:19:00,
2013-04-12 00:24:00,27.5,24.1,29.81,East,95,5.6,6.5,87,0.00,,---,0.00,VWS V13.01,2013-04-12 05:24:00,
2013-04-12 00:29:00,27.7,24.3,29.78,ENE,59,5.1,6.9,87,0.00,,---,0.00,VWS V13.01,2013-04-12 05:29:00,
2013-04-12 00:34:00,27.9,24.8,29.78,ENE,68,5.6,6.9,88,0.00,,---,0.00,VWS V13.01,2013-04-12 05:34:00,
2013-04-12 00:39:00,27.9,24.8,29.78,ENE,64,3.6,5.1,88,0.00,,---,0.00,VWS V13.01,2013-04-12 05:39:00,
2013-04-12 00:44:00,28.0,25.0,29.78,ENE,77,6.0,6.0,88,0.00,,---,0.00,VWS V13.01,2013-04-12 05:44:00,
2013-04-12 00:49:00,28.2,25.1,29.78,ENE,67,6.0,6.0,88,0.00,,---,0.00,VWS V13.01,2013-04-12 05:49:00,
2013-04-12 00:54:00,28.4,25.6,29.78,ENE,70,5.1,7.4,89,0.00,,---,0.00,VWS V13.01,2013-04-12 05:54:00,
2013-04-12 00:59:00,28.4,25.6,29.78,NE,47,5.6,6.9,89,0.00,,---,0.00,VWS V13.01,2013-04-12 05:59:00,
2013-04-12 01:04:00,28.6,25.8,29.78,East,92,6.5,8.3,89,0.00,,---,0.00,VWS V13.01,2013-04-12 06:04:00,
2013-04-12 01:09:00,28.6,25.8,29.78,NE,46,5.6,9.4,89,0.00,,---,0.00,VWS V13.01,2013-04-12 06:09:00,
2013-04-12 01:14:00,28.6,25.8,29.78,ENE,73,6.5,8.7,89,0.00,,---,0.00,VWS V13.01,2013-04-12 06:14:00,
2013-04-12 01:19:00,28.6,25.8,29.78,NE,38,6.0,8.3,89,0.00,,---,0.00,VWS V13.01,2013-04-12 06:19:00,
2013-04-12 01:24:00,28.6,25.5,29.78,ENE,70,7.4,8.9,88,0.00,,---,0.00,VWS V13.01,2013-04-12 06:24:00,
2013-04-12 01:29:00,28.6,25.5,29.78,East,86,4.7,6.5,88,0.00,,---,0.00,VWS V13.01,2013-04-12 06:29:00,
2013-04-12 01:34:00,28.6,25.5,29.78,ENE,57,6.5,7.8,88,0.00,,---,0.00,VWS V13.01,2013-04-12 06:34:00,
2013-04-12 01:39:00,28.4,25.3,29.78,East,81,7.4,12.1,88,0.00,,---,0.00,VWS V13.01,2013-04-12 06:39:00,
2013-04-12 01:44:00,28.4,25.3,29.78,NE,48,6.9,8.9,88,0.00,,---,0.00,VWS V13.01,2013-04-12 06:44:00,
2013-04-12 01:49:00,28.4,25.3,29.78,NE,54,6.0,7.8,88,0.00,,---,0.00,VWS V13.01,2013-04-12 06:49:00,
2013-04-12 01:54:00,28.4,25.3,29.78,NE,49,7.8,9.8,88,0.00,,---,0.00,VWS V13.01,2013-04-12 06:54:00,
2013-04-12 01:59:00,28.4,25.3,29.78,NE,42,8.9,8.9,88,0.00,,---,0.00,VWS V13.01,2013-04-12 06:59:00,
2013-04-12 02:04:00,28.4,25.3,29.78,NE,41,6.0,8.7,88,0.00,,---,0.00,VWS V13.01,2013-04-12 07:04:00,
2013-04-12 02:09:00,28.6,25.2,29.78,NNE,32,9.4,9.4,87,0.00,,---,0.00,VWS V13.01,2013-04-12 07:09:00,
2013-04-12 02:14:00,28.6,25.2,29.75,East,84,5.6,7.8,87,0.00,,---,0.00,VWS V13.01,2013-04-12 07:14:00,
2013-04-12 02:19:00,28.6,25.2,29.75,East,79,5.1,8.3,87,0.00,,---,0.00,VWS V13.01,2013-04-12 07:19:00,
2013-04-12 02:24:00,28.6,25.2,29.75,East,88,5.6,6.5,87,0.00,,---,0.00,VWS V13.01,2013-04-12 07:24:00,
2013-04-12 02:29:00,28.6,25.2,29.75,NNE,30,5.6,8.7,87,0.00,,---,0.00,VWS V13.01,2013-04-12 07:29:00,
2013-04-12 02:34:00,28.6,25.2,29.75,NE,35,6.5,7.4,87,0.00,,---,0.00,VWS V13.01,2013-04-12 07:34:00,
2013-04-12 02:39:00,28.6,25.2,29.75,NE,38,6.0,7.8,87,0.00,,---,0.00,VWS V13.01,2013-04-12 07:39:00,
2013-04-12 02:44:00,28.6,25.2,29.75,ENE,70,4.7,5.1,87,0.00,,---,0.00,VWS V13.01,2013-04-12 07:44:00,
2013-04-12 02:49:00,28.6,25.2,29.75,ENE,57,8.3,8.3,87,0.00,,---,0.00,VWS V13.01,2013-04-12 07:49:00,
2013-04-12 02:54:00,28.6,25.2,29.75,NNE,29,7.8,8.9,87,0.00,,---,0.00,VWS V13.01,2013-04-12 07:54:00,
2013-04-12 02:59:00,28.6,25.2,29.75,NE,48,6.9,7.8,87,0.00,,---,0.00,VWS V13.01,2013-04-12 07:59:00,
2013-04-12 03:04:00,28.6,25.2,29.75,NE,56,6.5,8.9,87,0.00,,---,0.00,VWS V13.01,2013-04-12 08:04:00,
2013-04-12 03:09:00,28.6,25.2,29.75,East,90,6.0,9.4,87,0.00,,---,0.00,VWS V13.01,2013-04-12 08:09:00,
2013-04-12 03:15:00,28.6,25.2,29.75,East,79,6.9,6.9,87,0.00,,---,0.00,VWS V13.01,2013-04-12 08:15:00,
2013-04-12 03:22:00,28.6,25.2,29.75,ENE,70,6.5,8.9,87,0.00,,---,0.00,VWS V13.01,2013-04-12 08:22:00,
2013-04-12 03:28:00,28.6,25.2,29.75,NE,51,5.1,7.4,87,0.00,,---,0.00,VWS V13.01,2013-04-12 08:28:00,
2013-04-12 03:33:00,28.6,25.2,29.75,NE,49,7.8,7.8,87,0.00,,---,0.00,VWS V13.01,2013-04-12 08:33:00,
2013-04-12 03:39:00,28.6,25.2,29.75,ENE,68,9.4,9.4,87,0.00,,---,0.00,VWS V13.01,2013-04-12 08:39:00,
2013-04-12 03:44:00,28.6,25.2,29.75,NE,48,6.0,6.5,87,0.00,,---,0.00,VWS V13.01,2013-04-12 08:44:00,
2013-04-12 03:49:00,28.6,25.2,29.75,ENE,58,6.9,7.4,87,0.00,,---,0.00,VWS V13.01,2013-04-12 08:49:00,
2013-04-12 03:54:00,28.6,25.2,29.75,East,100,4.5,6.9,87,0.00,,---,0.00,VWS V13.01,2013-04-12 08:54:00,
2013-04-12 03:59:00,28.6,25.2,29.75,NE,51,5.6,9.8,87,0.00,,---,0.00,VWS V13.01,2013-04-12 08:59:00,
2013-04-12 04:05:00,28.6,24.9,29.75,NE,56,6.0,8.3,86,0.00,,---,0.00,VWS V13.01,2013-04-12 09:05:00,
2013-04-12 04:11:00,28.4,25.0,29.75,ENE,67,8.7,10.7,87,0.00,,---,0.00,VWS V13.01,2013-04-12 09:11:00,
2013-04-12 04:17:00,28.4,25.0,29.75,ENE,62,11.6,11.6,87,0.00,,---,0.00,VWS V13.01,2013-04-12 09:17:00,
2013-04-12 04:23:00,28.4,24.8,29.75,East,86,8.3,9.4,86,0.00,,---,0.00,VWS V13.01,2013-04-12 09:23:00,
2013-04-12 04:28:00,28.2,24.6,29.75,NE,51,7.4,7.8,86,0.00,,---,0.00,VWS V13.01,2013-04-12 09:28:00,
2013-04-12 04:34:00,28.2,24.6,29.75,NE,54,6.9,9.8,86,0.00,,---,0.00,VWS V13.01,2013-04-12 09:34:00,
2013-04-12 04:39:00,28.2,24.6,29.75,ENE,76,6.0,8.3,86,0.00,,---,0.00,VWS V13.01,2013-04-12 09:39:00,
2013-04-12 04:45:00,28.2,24.6,29.75,ENE,71,5.1,9.4,86,0.00,,---,0.00,VWS V13.01,2013-04-12 09:45:00,
2013-04-12 04:52:00,28.2,24.6,29.75,ENE,78,5.6,8.7,86,0.00,,---,0.00,VWS V13.01,2013-04-12 09:52:00,
2013-04-12 04:57:00,28.2,24.6,29.75,NE,51,9.4,9.4,86,0.00,,---,0.00,VWS V13.01,2013-04-12 09:57:00,
2013-04-12 05:03:00,28.4,25.0,29.75,ENE,59,6.5,8.3,87,0.00,,---,0.00,VWS V13.01,2013-04-12 10:03:00,
2013-04-12 05:09:00,28.4,25.0,29.75,ENE,58,5.1,9.4,87,0.00,,---,0.00,VWS V13.01,2013-04-12 10:09:00,
2013-04-12 05:14:00,28.2,24.9,29.75,East,80,6.0,8.9,87,0.00,,---,0.00,VWS V13.01,2013-04-12 10:14:00,
2013-04-12 05:19:00,28.2,24.9,29.75,ENE,58,4.5,8.9,87,0.00,,---,0.00,VWS V13.01,2013-04-12 10:19:00,
2013-04-12 05:25:00,28.2,24.6,29.75,ENE,78,8.7,8.9,86,0.00,,---,0.00,VWS V13.01,2013-04-12 10:25:00,
2013-04-12 05:30:00,28.2,24.6,29.75,ENE,72,7.4,7.4,86,0.00,,---,0.00,VWS V13.01,2013-04-12 10:30:00,
2013-04-12 05:35:00,28.0,24.4,29.75,NE,43,5.1,8.3,86,0.00,,---,0.00,VWS V13.01,2013-04-12 10:35:00,
2013-04-12 05:41:00,28.0,24.4,29.75,NE,36,7.8,8.9,86,0.00,,---,0.00,VWS V13.01,2013-04-12 10:41:00,
2013-04-12 05:47:00,28.0,24.7,29.75,NNE,27,8.9,8.9,87,0.00,,---,0.00,VWS V13.01,2013-04-12 10:47:00,
2013-04-12 05:52:00,28.0,24.7,29.75,NE,46,6.9,6.9,87,0.00,,---,0.00,VWS V13.01,2013-04-12 10:52:00,
2013-04-12 05:58:00,28.0,24.4,29.75,East,84,5.6,6.9,86,0.00,,---,0.00,VWS V13.01,2013-04-12 10:58:00,
2013-04-12 06:04:00,28.0,24.4,29.75,East,86,6.0,7.4,86,0.00,,---,0.00,VWS V13.01,2013-04-12 11:04:00,
2013-04-12 06:09:00,28.0,24.4,29.75,NNE,27,6.5,10.3,86,0.00,,---,0.00,VWS V13.01,2013-04-12 11:09:00,
2013-04-12 06:14:00,28.0,24.4,29.72,NNE,21,6.9,7.8,86,0.00,,---,0.00,VWS V13.01,2013-04-12 11:14:00,
2013-04-12 06:19:00,27.9,24.2,29.72,NE,55,5.6,10.7,86,0.00,,---,0.00,VWS V13.01,2013-04-12 11:19:00,
2013-04-12 06:25:00,27.9,24.2,29.72,NE,55,8.7,11.6,86,0.00,,---,0.00,VWS V13.01,2013-04-12 11:25:00,
2013-04-12 06:30:00,27.9,24.2,29.72,East,95,4.5,6.9,86,0.00,,---,0.00,VWS V13.01,2013-04-12 11:30:00,
2013-04-12 06:35:00,27.7,23.8,29.72,NE,45,6.5,8.3,85,0.00,,---,0.00,VWS V13.01,2013-04-12 11:35:00,
2013-04-12 06:41:00,27.7,23.8,29.72,NE,36,5.1,6.9,85,0.00,,---,0.00,VWS V13.01,2013-04-12 11:41:00,
2013-04-12 06:46:00,27.7,23.8,29.72,ESE,102,8.3,10.7,85,0.00,,---,0.00,VWS V13.01,2013-04-12 11:46:00,
2013-04-12 06:52:00,27.5,23.0,29.72,NE,46,8.7,8.7,83,0.00,,---,0.00,VWS V13.01,2013-04-12 11:52:00,
2013-04-12 06:58:00,27.3,22.9,29.72,NE,53,6.0,8.3,83,0.00,,---,0.00,VWS V13.01,2013-04-12 11:58:00,
2013-04-12 07:03:00,27.3,22.6,29.72,East,93,3.1,6.5,82,0.00,,---,0.00,VWS V13.01,2013-04-12 12:03:00,
2013-04-12 07:09:00,27.3,22.6,29.72,NE,50,4.0,6.9,82,0.00,,---,0.00,VWS V13.01,2013-04-12 12:09:00,
2013-04-12 07:14:00,27.3,22.6,29.72,NNE,31,7.4,7.4,82,0.00,,---,0.00,VWS V13.01,2013-04-12 12:14:00,
2013-04-12 07:19:00,27.3,22.6,29.72,ESE,109,6.5,8.9,82,0.00,,---,0.00,VWS V13.01,2013-04-12 12:19:00,
2013-04-12 07:24:00,27.1,22.1,29.72,ENE,61,3.6,7.8,81,0.00,,---,0.00,VWS V13.01,2013-04-12 12:24:00,
2013-04-12 07:30:00,27.1,21.8,29.72,NNE,26,6.9,12.1,80,0.00,,---,0.00,VWS V13.01,2013-04-12 12:30:00,
2013-04-12 07:35:00,27.1,21.8,29.72,NE,52,6.5,11.2,80,0.00,,---,0.00,VWS V13.01,2013-04-12 12:35:00,
2013-04-12 07:41:00,27.0,21.6,29.72,NNE,33,5.6,11.2,80,0.00,,---,0.00,VWS V13.01,2013-04-12 12:41:00,
2013-04-12 07:46:00,27.0,21.6,29.72,NE,42,9.8,9.8,80,0.00,,---,0.00,VWS V13.01,2013-04-12 12:46:00,
2013-04-12 07:52:00,26.8,21.5,29.72,NNE,29,8.7,8.7,80,0.00,,---,0.00,VWS V13.01,2013-04-12 12:52:00,
2013-04-12 07:57:00,26.8,21.1,29.72,NE,50,6.0,10.7,79,0.00,,---,0.00,VWS V13.01,2013-04-12 12:57:00,
2013-04-12 08:04:00,26.8,21.1,29.72,NNE,33,6.0,7.4,79,0.00,,---,0.00,VWS V13.01,2013-04-12 13:04:00,
2013-04-12 08:09:00,26.8,21.1,29.72,East,81,7.8,8.7,79,0.00,,---,0.00,VWS V13.01,2013-04-12 13:09:00,
2013-04-12 08:14:00,27.0,21.6,29.72,NE,46,5.1,5.6,80,0.00,,---,0.00,VWS V13.01,2013-04-12 13:14:00,
2013-04-12 08:20:00,27.0,21.6,29.72,NE,43,5.6,6.9,80,0.00,,---,0.00,VWS V13.01,2013-04-12 13:20:00,
2013-04-12 08:25:00,27.0,21.9,29.72,ESE,106,5.6,7.4,81,0.00,,---,0.00,VWS V13.01,2013-04-12 13:25:00,
2013-04-12 08:31:00,27.0,21.9,29.72,East,92,4.7,8.7,81,0.00,,---,0.00,VWS V13.01,2013-04-12 13:31:00,
2013-04-12 08:36:00,27.0,21.9,29.72,ENE,70,6.0,6.0,81,0.00,,---,0.00,VWS V13.01,2013-04-12 13:36:00,
2013-04-12 08:42:00,27.0,22.2,29.72,NNE,33,8.3,8.3,82,0.00,,---,0.00,VWS V13.01,2013-04-12 13:42:00,
2013-04-12 08:47:00,27.0,21.9,29.72,NE,45,11.2,12.1,81,0.00,,---,0.00,VWS V13.01,2013-04-12 13:47:00,
2013-04-12 08:53:00,27.0,21.9,29.72,NE,42,4.7,6.9,81,0.00,,---,0.00,VWS V13.01,2013-04-12 13:53:00,
2013-04-12 08:59:00,27.0,21.9,29.72,East,86,5.1,9.4,81,0.00,,---,0.00,VWS V13.01,2013-04-12 13:59:00,
2013-04-12 09:04:00,27.0,21.6,29.72,ENE,69,5.1,6.0,80,0.00,,---,0.00,VWS V13.01,2013-04-12 14:04:00,
2013-04-12 09:09:00,27.0,21.6,29.72,East,79,5.6,8.7,80,0.00,,---,0.00,VWS V13.01,2013-04-12 14:09:00,
2013-04-12 09:14:00,27.0,21.9,29.72,NNE,27,7.8,7.8,81,0.00,,---,0.00,VWS V13.01,2013-04-12 14:14:00,
2013-04-12 09:20:00,27.1,21.8,29.72,NNE,17,8.9,10.3,80,0.00,,---,0.00,VWS V13.01,2013-04-12 14:20:00,
2013-04-12 09:25:00,27.1,21.8,29.72,NE,48,6.5,7.8,80,0.00,,---,0.00,VWS V13.01,2013-04-12 14:25:00,
2013-04-12 09:31:00,27.1,21.8,29.72,NNE,19,6.0,6.0,80,0.00,,---,0.00,VWS V13.01,2013-04-12 14:31:00,
2013-04-12 09:36:00,27.1,21.8,29.72,North,2,4.5,6.0,80,0.00,,---,0.00,VWS V13.01,2013-04-12 14:36:00,
2013-04-12 09:41:00,27.3,22.0,29.72,NE,50,5.1,8.9,80,0.00,,---,0.00,VWS V13.01,2013-04-12 14:41:00,
2013-04-12 09:46:00,27.3,22.0,29.72,NE,43,5.1,8.3,80,0.00,,---,0.00,VWS V13.01,2013-04-12 14:46:00,
2013-04-12 09:53:00,27.1,21.5,29.72,NE,56,7.8,7.8,79,0.00,,---,0.00,VWS V13.01,2013-04-12 14:53:00,
2013-04-12 09:59:00,27.3,21.4,29.72,ENE,78,6.9,9.4,78,0.00,,---,0.00,VWS V13.01,2013-04-12 14:59:00,
2013-04-12 10:04:00,27.5,21.5,29.72,NE,52,6.5,7.8,78,0.00,,---,0.00,VWS V13.01,2013-04-12 15:04:00,
2013-04-12 10:09:00,27.7,22.0,29.72,ENE,60,3.6,8.3,79,0.00,,---,0.00,VWS V13.01,2013-04-12 15:09:00,
2013-04-12 10:14:00,27.9,22.2,29.72,ENE,63,3.6,6.9,79,0.00,,---,0.00,VWS V13.01,2013-04-12 15:14:00,
2013-04-12 10:19:00,27.9,22.5,29.72,East,93,5.1,6.9,80,0.00,,---,0.00,VWS V13.01,2013-04-12 15:19:00,
2013-04-12 10:25:00,27.9,22.2,29.72,NE,47,6.9,6.9,79,0.00,,---,0.00,VWS V13.01,2013-04-12 15:25:00,
2013-04-12 10:30:00,27.9,22.2,29.72,ENE,75,5.1,8.3,79,0.00,,---,0.00,VWS V13.01,2013-04-12 15:30:00,
2013-04-12 10:35:00,27.9,22.2,29.72,ENE,65,5.6,6.9,79,0.00,,---,0.00,VWS V13.01,2013-04-12 15:35:00,
2013-04-12 10:40:00,28.0,22.4,29.72,NNE,27,9.8,11.2,79,0.00,,---,0.00,VWS V13.01,2013-04-12 15:40:00,
2013-04-12 10:45:00,27.9,22.2,29.72,ENE,64,5.6,7.8,79,0.00,,---,0.00,VWS V13.01,2013-04-12 15:45:00,
2013-04-12 10:50:00,28.0,22.4,29.72,East,93,4.0,7.4,79,0.00,,---,0.00,VWS V13.01,2013-04-12 15:50:00,
2013-04-12 10:55:00,28.0,22.4,29.72,East,101,5.1,7.4,79,0.00,,---,0.00,VWS V13.01,2013-04-12 15:55:00,
2013-04-12 11:00:00,28.0,22.1,29.72,NNE,21,6.5,8.3,78,0.00,,---,0.00,VWS V13.01,2013-04-12 16:00:00,
2013-04-12 11:05:00,28.0,22.1,29.72,East,80,4.0,6.5,78,0.00,,---,0.00,VWS V13.01,2013-04-12 16:05:00,
2013-04-12 11:10:00,28.2,22.2,29.72,NE,56,5.6,6.9,78,0.00,,---,0.00,VWS V13.01,2013-04-12 16:10:00,
2013-04-12 11:15:00,28.2,22.2,29.72,NNE,28,6.9,7.8,78,0.00,,---,0.00,VWS V13.01,2013-04-12 16:15:00,
2013-04-12 11:20:00,28.2,22.2,29.72,NE,52,5.6,8.3,78,0.00,,---,0.00,VWS V13.01,2013-04-12 16:20:00,
2013-04-12 11:25:00,28.2,22.2,29.72,NNE,22,4.7,4.7,78,0.00,,---,0.00,VWS V13.01,2013-04-12 16:25:00,
2013-04-12 11:31:00,28.4,22.4,29.72,NE,51,7.8,8.3,78,0.00,,---,0.00,VWS V13.01,2013-04-12 16:31:00,
2013-04-12 11:36:00,28.2,22.2,29.72,NE,48,4.7,7.4,78,0.00,,---,0.00,VWS V13.01,2013-04-12 16:36:00,
2013-04-12 11:42:00,28.0,21.8,29.72,NE,49,4.5,5.6,77,0.00,,---,0.00,VWS V13.01,2013-04-12 16:42:00,
2013-04-12 11:47:00,28.2,22.2,29.72,North,5,6.5,6.5,78,0.00,,---,0.00,VWS V13.01,2013-04-12 16:47:00,
2013-04-12 11:52:00,28.2,22.2,29.72,NE,52,9.4,9.4,78,0.00,,---,0.00,VWS V13.01,2013-04-12 16:52:00,
2013-04-12 11:57:00,28.2,22.2,29.75,East,81,7.8,7.8,78,0.00,,---,0.00,VWS V13.01,2013-04-12 16:57:00,
2013-04-12 12:03:00,28.4,22.4,29.75,NE,51,5.1,7.4,78,0.00,,---,0.00,VWS V13.01,2013-04-12 17:03:00,
2013-04-12 12:08:00,28.4,22.4,29.75,NE,50,4.5,6.5,78,0.00,,---,0.00,VWS V13.01,2013-04-12 17:08:00,
2013-04-12 12:14:00,28.6,22.3,29.72,NE,34,4.0,9.8,77,0.00,,---,0.00,VWS V13.01,2013-04-12 17:14:00,
2013-04-12 12:19:00,28.6,22.6,29.72,ENE,75,3.6,5.1,78,0.00,,---,0.00,VWS V13.01,2013-04-12 17:19:00,
2013-04-12 12:24:00,28.8,22.8,29.72,ENE,70,4.0,5.1,78,0.00,,---,0.00,VWS V13.01,2013-04-12 17:24:00,
2013-04-12 12:29:00,28.8,22.8,29.72,NNE,13,4.5,5.1,78,0.00,,---,0.00,VWS V13.01,2013-04-12 17:29:00,
2013-04-12 12:34:00,28.8,22.8,29.72,ENE,70,4.0,4.7,78,0.00,,---,0.00,VWS V13.01,2013-04-12 17:34:00,
2013-04-12 12:39:00,28.9,23.0,29.72,NNE,30,7.4,7.4,78,0.00,,---,0.00,VWS V13.01,2013-04-12 17:39:00,
2013-04-12 12:44:00,28.9,23.0,29.72,East,85,3.6,4.5,78,0.00,,---,0.00,VWS V13.01,2013-04-12 17:44:00,
2013-04-12 12:49:00,29.1,23.1,29.72,NE,55,3.1,6.0,78,0.00,,---,0.00,VWS V13.01,2013-04-12 17:49:00,
2013-04-12 12:55:00,28.9,23.0,29.72,ENE,60,7.4,7.4,78,0.00,,---,0.00,VWS V13.01,2013-04-12 17:55:00,
2013-04-12 13:03:00,28.9,23.0,29.75,NE,46,5.1,5.1,78,0.00,,---,0.00,VWS V13.01,2013-04-12 18:03:00,
2013-04-12 13:09:00,29.1,23.1,29.75,NE,40,6.0,6.0,78,0.00,,---,0.00,VWS V13.01,2013-04-12 18:09:00,
2013-04-12 13:14:00,29.1,23.1,29.72,NNE,31,5.1,8.3,78,0.00,,---,0.00,VWS V13.01,2013-04-12 18:14:00,
2013-04-12 13:23:00,29.3,23.3,29.72,NE,43,5.1,8.3,78,0.00,,---,0.00,VWS V13.01,2013-04-12 18:23:00,
2013-04-12 13:29:00,29.1,22.8,29.72,East,93,5.6,6.9,77,0.00,,---,0.00,VWS V13.01,2013-04-12 18:29:00,
2013-04-12 14:26:00,29.3,23.3,29.75,NE,48,5.1,6.5,78,0.00,,---,0.00,VWS V13.01,2013-04-12 19:26:00,
2013-04-12 14:27:00,29.3,23.3,29.72,NE,45,4.5,6.0,78,0.00,,---,0.00,VWS V13.01,2013-04-12 19:27:00,
2013-04-12 14:29:00,29.3,23.3,29.72,North,10,7.8,7.8,78,0.00,,---,0.00,VWS V13.01,2013-04-12 19:29:00,
2013-04-12 14:30:00,29.5,23.5,29.72,NNE,33,4.7,8.3,78,0.00,,---,0.00,VWS V13.01,2013-04-12 19:30:00,
2013-04-12 14:35:00,29.5,23.2,29.72,North,6,6.9,6.9,77,0.00,,---,0.00,VWS V13.01,2013-04-12 19:35:00,
2013-04-12 14:41:00,29.8,23.8,29.72,NE,48,5.1,5.1,78,0.00,,---,0.00,VWS V13.01,2013-04-12 19:41:00,
2013-04-12 14:47:00,30.2,23.9,29.75,East,80,0.0,5.1,77,0.00,,---,0.00,VWS V13.01,2013-04-12 19:47:00,
2013-04-12 14:52:00,30.2,23.9,29.75,ENE,70,4.5,4.7,77,0.00,,---,0.00,VWS V13.01,2013-04-12 19:52:00,
2013-04-12 14:59:00,30.2,23.9,29.75,East,82,4.0,5.1,77,0.00,,---,0.00,VWS V13.01,2013-04-12 19:59:00,
2013-04-12 15:04:00,30.6,24.2,29.75,NNE,23,5.6,6.0,77,0.00,,---,0.00,VWS V13.01,2013-04-12 20:04:00,
2013-04-12 15:09:00,30.9,24.6,29.75,ENE,72,4.0,5.6,77,0.00,,---,0.00,VWS V13.01,2013-04-12 20:09:00,
2013-04-12 15:15:00,30.9,24.6,29.75,ENE,61,5.1,5.1,77,0.00,,---,0.00,VWS V13.01,2013-04-12 20:15:00,
2013-04-12 15:20:00,31.1,24.8,29.75,NE,52,5.1,7.4,77,0.00,,---,0.00,VWS V13.01,2013-04-12 20:20:00,
2013-04-12 15:25:00,30.7,24.4,29.75,ENE,63,2.7,4.5,77,0.00,,---,0.00,VWS V13.01,2013-04-12 20:25:00,
2013-04-12 15:30:00,30.9,24.9,29.75,NE,45,6.5,6.9,78,0.00,,---,0.00,VWS V13.01,2013-04-12 20:30:00,
2013-04-12 15:36:00,31.1,25.0,29.75,NE,36,7.4,7.4,78,0.00,,---,0.00,VWS V13.01,2013-04-12 20:36:00,
2013-04-12 15:41:00,31.1,25.0,29.75,NE,45,8.7,9.4,78,0.00,,---,0.00,VWS V13.01,2013-04-12 20:41:00,
2013-04-12 15:47:00,30.7,24.7,29.75,NE,44,7.8,10.3,78,0.00,,---,0.00,VWS V13.01,2013-04-12 20:47:00,
2013-04-12 15:52:00,30.4,24.7,29.75,NE,41,8.3,8.3,79,0.00,,---,0.00,VWS V13.01,2013-04-12 20:52:00,
2013-04-12 15:58:00,30.2,24.5,29.75,ENE,73,6.0,9.8,79,0.00,,---,0.00,VWS V13.01,2013-04-12 20:58:00,
2013-04-12 16:03:00,30.0,24.6,29.75,NE,36,8.7,9.8,80,0.00,,---,0.00,VWS V13.01,2013-04-12 21:03:00,
2013-04-12 16:09:00,29.8,24.4,29.75,NE,49,5.6,8.3,80,0.00,,---,0.00,VWS V13.01,2013-04-12 21:09:00,
2013-04-12 16:14:00,29.8,24.4,29.75,NE,34,4.7,6.9,80,0.00,,---,0.00,VWS V13.01,2013-04-12 21:14:00,
2013-04-12 16:19:00,29.7,24.3,29.75,ESE,104,7.4,8.7,80,0.00,,---,0.00,VWS V13.01,2013-04-12 21:19:00,
2013-04-12 16:26:00,29.5,24.1,29.75,NNE,30,6.5,6.5,80,0.00,,---,0.00,VWS V13.01,2013-04-12 21:26:00,
2013-04-12 16:32:00,29.5,23.8,29.75,NE,50,6.9,6.9,79,0.00,,---,0.00,VWS V13.01,2013-04-12 21:32:00,
2013-04-12 16:37:00,29.3,23.6,29.75,NNE,32,6.5,8.7,79,0.00,,---,0.00,VWS V13.01,2013-04-12 21:37:00,
2013-04-12 16:43:00,29.1,23.1,29.75,NNE,33,8.7,8.7,78,0.00,,---,0.00,VWS V13.01,2013-04-12 21:43:00,
2013-04-12 16:49:00,28.9,23.3,29.75,North,6,5.6,7.4,79,0.00,,---,0.00,VWS V13.01,2013-04-12 21:49:00,
2013-04-12 16:54:00,28.9,23.6,29.75,NE,40,7.8,11.2,80,0.00,,---,0.00,VWS V13.01,2013-04-12 21:54:00,
2013-04-12 17:00:00,28.6,22.9,29.78,NE,49,4.7,8.9,79,0.00,,---,0.00,VWS V13.01,2013-04-12 22:00:00,
2013-04-12 17:05:00,28.6,22.9,29.78,ENE,63,11.6,11.6,79,0.00,,---,0.00,VWS V13.01,2013-04-12 22:05:00,
2013-04-12 17:11:00,28.4,23.0,29.78,ENE,68,0.0,6.0,80,0.00,,---,0.00,VWS V13.01,2013-04-12 22:11:00,
2013-04-12 17:16:00,28.4,23.0,29.78,NE,36,7.4,8.7,80,0.00,,---,0.00,VWS V13.01,2013-04-12 22:16:00,
2013-04-12 17:23:00,28.4,23.0,29.78,ENE,70,4.7,7.4,80,0.00,,---,0.00,VWS V13.01,2013-04-12 22:23:00,
2013-04-12 17:28:00,28.2,22.9,29.78,ENE,65,6.0,6.0,80,0.00,,---,0.00,VWS V13.01,2013-04-12 22:28:00,
2013-04-12 17:33:00,28.2,22.9,29.78,NE,52,4.7,6.0,80,0.00,,---,0.00,VWS V13.01,2013-04-12 22:33:00,
2013-04-12 17:39:00,28.2,23.1,29.78,NNE,20,5.6,8.7,81,0.00,,---,0.00,VWS V13.01,2013-04-12 22:39:00,
2013-04-12 17:44:00,28.0,23.0,29.78,NE,48,6.5,8.3,81,0.00,,---,0.00,VWS V13.01,2013-04-12 22:44:00,
2013-04-12 17:50:00,27.9,23.1,29.78,NNE,30,3.1,4.7,82,0.00,,---,0.00,VWS V13.01,2013-04-12 22:50:00,
2013-04-12 17:56:00,27.9,23.1,29.78,NE,34,7.8,11.6,82,0.00,,---,0.00,VWS V13.01,2013-04-12 22:56:00,
2013-04-12 18:02:00,27.9,23.1,29.78,NE,52,3.6,5.6,82,0.00,,---,0.00,VWS V13.01,2013-04-12 23:02:00,
2013-04-12 18:07:00,27.9,23.1,29.78,ENE,58,3.6,9.4,82,0.00,,---,0.00,VWS V13.01,2013-04-12 23:07:00,
2013-04-12 18:13:00,27.7,22.9,29.78,NE,34,7.4,10.7,82,0.00,,---,0.00,VWS V13.01,2013-04-12 23:13:00,
2013-04-12 18:18:00,27.5,22.7,29.78,NNE,24,4.5,7.4,82,0.00,,---,0.00,VWS V13.01,2013-04-12 23:18:00,
2013-04-12 18:23:00,27.3,22.6,29.78,ENE,61,7.4,9.8,82,0.00,,---,0.00,VWS V13.01,2013-04-12 23:23:00,
2013-04-12 18:29:00,27.1,22.7,29.78,NNE,32,6.9,7.8,83,0.00,,---,0.00,VWS V13.01,2013-04-12 23:29:00,
2013-04-12 18:35:00,27.0,22.5,29.78,NNE,32,5.6,6.5,83,0.00,,---,0.00,VWS V13.01,2013-04-12 23:35:00,
2013-04-12 18:41:00,27.0,22.5,29.78,NE,34,6.5,6.9,83,0.00,,---,0.00,VWS V13.01,2013-04-12 23:41:00,
2013-04-12 18:46:00,27.0,22.5,29.78,NE,37,7.8,7.8,83,0.00,,---,0.00,VWS V13.01,2013-04-12 23:46:00,
2013-04-12 18:52:00,26.8,22.3,29.78,NE,39,4.7,7.8,83,0.00,,---,0.00,VWS V13.01,2013-04-12 23:52:00,
2013-04-12 18:57:00,26.6,22.4,29.78,NE,38,5.1,6.9,84,0.00,,---,0.00,VWS V13.01,2013-04-12 23:57:00,
2013-04-12 19:03:00,26.4,22.2,29.78,East,100,4.5,5.6,84,0.00,,---,0.00,VWS V13.01,2013-04-13 00:03:00,
2013-04-12 19:08:00,26.4,22.0,29.78,NE,38,5.6,5.6,83,0.00,,---,0.00,VWS V13.01,2013-04-13 00:08:00,
2013-04-12 19:14:00,26.4,22.2,29.81,NE,54,6.9,9.4,84,0.00,,---,0.00,VWS V13.01,2013-04-13 00:14:00,
2013-04-12 19:20:00,26.2,22.1,29.81,ENE,59,4.7,5.1,84,0.00,,---,0.00,VWS V13.01,2013-04-13 00:20:00,
2013-04-12 19:25:00,26.2,22.1,29.81,NE,41,6.9,7.4,84,0.00,,---,0.00,VWS V13.01,2013-04-13 00:25:00,
2013-04-12 19:32:00,26.1,21.9,29.81,NE,43,5.6,5.6,84,0.00,,---,0.00,VWS V13.01,2013-04-13 00:32:00,
2013-04-12 19:38:00,26.1,21.9,29.81,NNE,13,5.6,6.9,84,0.00,,---,0.00,VWS V13.01,2013-04-13 00:38:00,
2013-04-12 19:44:00,26.1,21.9,29.81,NNE,19,4.7,6.9,84,0.00,,---,0.00,VWS V13.01,2013-04-13 00:44:00,
2013-04-12 19:49:00,26.1,21.9,29.81,NE,48,8.7,8.7,84,0.00,,---,0.00,VWS V13.01,2013-04-13 00:49:00,
2013-04-12 19:55:00,25.9,21.7,29.81,NNE,14,4.5,5.1,84,0.00,,---,0.00,VWS V13.01,2013-04-13 00:55:00,
2013-04-12 20:00:00,25.9,21.7,29.81,NE,50,6.0,6.9,84,0.00,,---,0.00,VWS V13.01,2013-04-13 01:00:00,
2013-04-12 20:05:00,25.9,21.7,29.81,ENE,57,5.6,7.8,84,0.00,,---,0.00,VWS V13.01,2013-04-13 01:05:00,
2013-04-12 20:10:00,25.7,21.3,29.81,NE,47,4.7,4.7,83,0.00,,---,0.00,VWS V13.01,2013-04-13 01:10:00,
2013-04-12 20:17:00,25.5,21.1,29.78,NE,37,5.6,5.6,83,0.00,,---,0.00,VWS V13.01,2013-04-13 01:17:00,
2013-04-12 20:23:00,25.3,20.9,29.78,NE,44,4.0,6.0,83,0.00,,---,0.00,VWS V13.01,2013-04-13 01:23:00,
2013-04-12 20:29:00,25.3,20.9,29.78,NNE,19,6.0,6.0,83,0.00,,---,0.00,VWS V13.01,2013-04-13 01:29:00,
2013-04-12 20:34:00,25.3,20.9,29.78,NNE,33,5.6,5.6,83,0.00,,---,0.00,VWS V13.01,2013-04-13 01:34:00,
2013-04-12 20:40:00,25.3,20.9,29.78,NNE,20,4.0,4.7,83,0.00,,---,0.00,VWS V13.01,2013-04-13 01:40:00,
2013-04-12 20:45:00,25.2,20.7,29.81,NNE,30,4.7,4.7,83,0.00,,---,0.00,VWS V13.01,2013-04-13 01:45:00,
2013-04-12 20:50:00,25.2,21.0,29.81,North,357,5.1,5.6,84,0.00,,---,0.00,VWS V13.01,2013-04-13 01:50:00,
2013-04-12 20:56:00,25.2,21.0,29.81,North,10,5.1,5.1,84,0.00,,---,0.00,VWS V13.01,2013-04-13 01:56:00,
2013-04-12 21:01:00,25.2,20.7,29.81,North,8,4.5,4.7,83,0.00,,---,0.00,VWS V13.01,2013-04-13 02:01:00,
2013-04-12 21:06:00,25.2,21.0,29.81,NNE,31,6.9,6.9,84,0.00,,---,0.00,VWS V13.01,2013-04-13 02:06:00,
2013-04-12 21:11:00,25.2,21.0,29.81,NNE,24,4.5,6.0,84,0.00,,---,0.00,VWS V13.01,2013-04-13 02:11:00,
2013-04-12 21:17:00,25.2,21.0,29.81,NNE,14,4.7,5.1,84,0.00,,---,0.00,VWS V13.01,2013-04-13 02:17:00,
2013-04-12 21:22:00,25.2,21.0,29.81,NNE,19,5.1,5.1,84,0.00,,---,0.00,VWS V13.01,2013-04-13 02:22:00,
2013-04-12 21:28:00,25.2,21.0,29.81,North,11,4.0,4.5,84,0.00,,---,0.00,VWS V13.01,2013-04-13 02:28:00,
2013-04-12 21:34:00,25.2,21.0,29.81,North,4,4.7,6.0,84,0.00,,---,0.00,VWS V13.01,2013-04-13 02:34:00,
2013-04-12 21:39:00,25.0,20.8,29.81,NNW,339,4.5,5.1,84,0.00,,---,0.00,VWS V13.01,2013-04-13 02:39:00,
2013-04-12 21:45:00,25.0,20.8,29.81,North,350,4.5,4.5,84,0.00,,---,0.00,VWS V13.01,2013-04-13 02:45:00,
2013-04-12 21:50:00,25.0,20.8,29.81,North,357,3.6,3.6,84,0.00,,---,0.00,VWS V13.01,2013-04-13 02:50:00,
2013-04-12 21:56:00,24.8,20.7,29.81,North,3,4.0,5.1,84,0.00,,---,0.00,VWS V13.01,2013-04-13 02:56:00,
2013-04-12 22:02:00,24.8,20.7,29.81,NNE,16,4.0,4.0,84,0.00,,---,0.00,VWS V13.01,2013-04-13 03:02:00,
2013-04-12 22:07:00,24.8,20.7,29.81,NNE,12,3.1,4.5,84,0.00,,---,0.00,VWS V13.01,2013-04-13 03:07:00,
2013-04-12 22:13:00,24.6,20.5,29.81,North,4,3.6,4.0,84,0.00,,---,0.00,VWS V13.01,2013-04-13 03:13:00,
2013-04-12 22:18:00,24.6,20.5,29.81,North,357,3.6,4.0,84,0.00,,---,0.00,VWS V13.01,2013-04-13 03:18:00,
2013-04-12 22:23:00,24.6,20.2,29.81,North,357,4.5,4.5,83,0.00,,---,0.00,VWS V13.01,2013-04-13 03:23:00,
2013-04-12 22:28:00,24.4,20.0,29.81,North,0,3.1,3.6,83,0.00,,---,0.00,VWS V13.01,2013-04-13 03:28:00,
2013-04-12 22:33:00,24.4,20.0,29.81,North,0,4.5,4.5,83,0.00,,---,0.00,VWS V13.01,2013-04-13 03:33:00,
2013-04-12 22:39:00,24.4,20.0,29.81,North,353,4.7,4.7,83,0.00,,---,0.00,VWS V13.01,2013-04-13 03:39:00,
2013-04-12 22:45:00,24.4,20.0,29.81,North,357,4.5,5.1,83,0.00,,---,0.00,VWS V13.01,2013-04-13 03:45:00,
2013-04-12 22:50:00,24.3,19.6,29.81,North,6,4.0,4.7,82,0.00,,---,0.00,VWS V13.01,2013-04-13 03:50:00,
2013-04-12 22:56:00,24.3,19.6,29.81,NNE,23,3.1,4.7,82,0.00,,---,0.00,VWS V13.01,2013-04-13 03:56:00,
2013-04-12 23:00:00,24.3,19.6,29.81,North,357,4.0,4.7,82,0.00,,---,0.00,VWS V13.01,2013-04-13 04:00:00,
2013-04-12 23:01:00,24.1,19.4,29.81,North,357,3.6,4.5,82,0.00,,---,0.00,VWS V13.01,2013-04-13 04:01:00,
2013-04-12 23:02:00,24.1,19.4,29.81,North,357,3.6,4.5,82,0.00,,---,0.00,VWS V13.01,2013-04-13 04:02:00,
2013-04-12 23:08:00,24.1,19.4,29.81,WSW,253,3.6,4.5,82,0.00,,---,0.00,VWS V13.01,2013-04-13 04:08:00,
2013-04-12 23:09:00,24.1,19.4,29.81,WSW,254,3.1,4.5,82,0.00,,---,0.00,VWS V13.01,2013-04-13 04:09:00,
2013-04-12 23:14:00,24.1,19.4,29.78,ENE,63,4.0,4.5,82,0.00,,---,0.00,VWS V13.01,2013-04-13 04:14:00,
2013-04-12 23:20:00,23.9,19.2,29.78,North,8,5.1,5.6,82,0.00,,---,0.00,VWS V13.01,2013-04-13 04:20:00,
2013-04-12 23:25:00,23.9,18.9,29.78,North,6,4.7,6.0,81,0.00,,---,0.00,VWS V13.01,2013-04-13 04:25:00,
2013-04-12 23:31:00,23.9,18.9,29.78,North,10,4.7,4.7,81,0.00,,---,0.00,VWS V13.01,2013-04-13 04:31:00,
2013-04-12 23:36:00,23.9,18.9,29.78,North,350,4.5,5.1,81,0.00,,---,0.00,VWS V13.01,2013-04-13 04:36:00,
2013-04-12 23:42:00,23.9,18.9,29.78,North,357,5.1,5.1,81,0.00,,---,0.00,VWS V13.01,2013-04-13 04:42:00,
2013-04-12 23:48:00,23.7,18.8,29.78,NNE,17,3.6,4.7,81,0.00,,---,0.00,VWS V13.01,2013-04-13 04:48:00,
2013-04-12 23:53:00,23.7,18.8,29.78,North,357,5.1,5.1,81,0.00,,---,0.00,VWS V13.01,2013-04-13 04:53:00,
2013-04-12 23:59:00,23.7,18.8,29.78,North,4,4.5,5.1,81,0.00,,---,0.00,VWS V13.01,2013-04-13 04:59:00,